owner,sensor,date,latitude,longitude,vertical_datum,sea_water_practical_salinity,qcFlag 
DISL,ioos:station:DISL:PPTA:1,2019-07-01T00:00:00Z,30.2791,-87.5561,1.448,18.66,11111222 
DISL,ioos:station:DISL:PPTA:1,2019-07-01T00:30:00Z,30.2791,-87.5561,1.5,18.5,11111222 
DISL,ioos:station:DISL:PPTA:1,2019-07-01T01:00:00Z,30.2791,-87.5561,1.438,19.37,11111222 
DISL,ioos:station:DISL:PPTA:1,2019-07-01T01:30:00Z,30.2791,-87.5561,1.5,21.0,11111222 
DISL,ioos:station:DISL:PPTA:1,2019-07-01T02:00:00Z,30.2791,-87.5561,1.464,16.68,11111222 
DISL,ioos:station:DISL:PPTA:1,2019-07-01T02:30:00Z,30.2791,-87.5561,1.5,17.9,11111222 
DISL,ioos:station:DISL:PPTA:1,2019-07-01T03:00:00Z,30.2791,-87.5561,1.496,22.18,11111222 
DISL,ioos:station:DISL:PPTA:1,2019-07-01T03:30:00Z,30.2791,-87.5561,1.5,20.6,11111222 
DISL,ioos:station:DISL:PPTA:1,2019-07-01T04:00:00Z,30.2791,-87.5561,1.526,19.16,11111222 
DISL,ioos:station:DISL:PPTA:1,2019-07-01T04:30:00Z,30.2791,-87.5561,1.5,18.3,11111222 
DISL,ioos:station:DISL:PPTA:1,2019-07-01T05:00:00Z,30.2791,-87.5561,1.536,19.09,11111222 
DISL,ioos:station:DISL:PPTA:1,2019-07-01T05:30:00Z,30.2791,-87.5561,1.6,22.9,11111222 
DISL,ioos:station:DISL:PPTA:1,2019-07-01T06:00:00Z,30.2791,-87.5561,1.557,22.48,11111222 
DISL,ioos:station:DISL:PPTA:1,2019-07-01T06:30:00Z,30.2791,-87.5561,1.6,22.7,11111222 
DISL,ioos:station:DISL:PPTA:1,2019-07-01T07:00:00Z,30.2791,-87.5561,1.573,22.71,11111222 
DISL,ioos:station:DISL:PPTA:1,2019-07-01T07:30:00Z,30.2791,-87.5561,1.6,22.7,11111222 
DISL,ioos:station:DISL:PPTA:1,2019-07-01T08:00:00Z,30.2791,-87.5561,1.632,23.17,11111222 
DISL,ioos:station:DISL:PPTA:1,2019-07-01T08:30:00Z,30.2791,-87.5561,1.7,24.4,11111222 
DISL,ioos:station:DISL:PPTA:1,2019-07-01T09:00:00Z,30.2791,-87.5561,1.723,24.85,11111222 
DISL,ioos:station:DISL:PPTA:1,2019-07-01T09:30:00Z,30.2791,-87.5561,1.7,25.4,11111222 
DISL,ioos:station:DISL:PPTA:1,2019-07-01T10:00:00Z,30.2791,-87.5561,1.766,25.91,11111222 
DISL,ioos:station:DISL:PPTA:1,2019-07-01T10:30:00Z,30.2791,-87.5561,1.811,26.76,11111222 
DISL,ioos:station:DISL:PPTA:1,2019-07-01T11:00:00Z,30.2791,-87.5561,1.8,26.8,11111222 
DISL,ioos:station:DISL:PPTA:1,2019-07-01T11:30:00Z,30.2791,-87.5561,2.1,27.1,11111222 
DISL,ioos:station:DISL:PPTA:1,2019-07-01T12:00:00Z,30.2791,-87.5561,2.1,26.9,11111222 
DISL,ioos:station:DISL:PPTA:1,2019-07-01T12:30:00Z,30.2791,-87.5561,2.2,27.7,11111222 
DISL,ioos:station:DISL:PPTA:1,2019-07-01T13:00:00Z,30.2791,-87.5561,2.002,27.15,11111222 
DISL,ioos:station:DISL:PPTA:1,2019-07-01T13:30:00Z,30.2791,-87.5561,2.3,27.1,11111222 
DISL,ioos:station:DISL:PPTA:1,2019-07-01T14:00:00Z,30.2791,-87.5561,2.006,26.5,11111222 
DISL,ioos:station:DISL:PPTA:1,2019-07-01T14:30:00Z,30.2791,-87.5561,2.0,26.8,11111222 
DISL,ioos:station:DISL:PPTA:1,2019-07-01T15:00:00Z,30.2791,-87.5561,2.1,26.8,11111222 
DISL,ioos:station:DISL:PPTA:1,2019-07-01T15:30:00Z,30.2791,-87.5561,2.1,26.6,11111222 
DISL,ioos:station:DISL:PPTA:1,2019-07-01T16:00:00Z,30.2791,-87.5561,2.1,26.5,11111222 
DISL,ioos:station:DISL:PPTA:1,2019-07-01T16:30:00Z,30.2791,-87.5561,2.0,26.7,11111222 
DISL,ioos:station:DISL:PPTA:1,2019-07-01T17:00:00Z,30.2791,-87.5561,2.0,26.8,11111222 
DISL,ioos:station:DISL:PPTA:1,2019-07-01T17:30:00Z,30.2791,-87.5561,2.0,24.8,11111222 
DISL,ioos:station:DISL:PPTA:1,2019-07-01T18:00:00Z,30.2791,-87.5561,2.124,26.08,11111222 
DISL,ioos:station:DISL:PPTA:1,2019-07-01T18:30:00Z,30.2791,-87.5561,2.0,25.8,11111222 
DISL,ioos:station:DISL:PPTA:1,2019-07-01T19:00:00Z,30.2791,-87.5561,1.983,25.6,11111222 
DISL,ioos:station:DISL:PPTA:1,2019-07-01T19:30:00Z,30.2791,-87.5561,1.9,25.6,11111222 
DISL,ioos:station:DISL:PPTA:1,2019-07-01T20:00:00Z,30.2791,-87.5561,1.938,25.0,11111222 
DISL,ioos:station:DISL:PPTA:1,2019-07-01T20:30:00Z,30.2791,-87.5561,2.0,22.4,11111222 
DISL,ioos:station:DISL:PPTA:1,2019-07-01T21:00:00Z,30.2791,-87.5561,2.02,22.3,11111222 
DISL,ioos:station:DISL:PPTA:1,2019-07-01T21:30:00Z,30.2791,-87.5561,2.0,22.4,11111222 
DISL,ioos:station:DISL:PPTA:1,2019-07-01T22:00:00Z,30.2791,-87.5561,2.04,21.79,11111222 
DISL,ioos:station:DISL:PPTA:1,2019-07-01T22:30:00Z,30.2791,-87.5561,1.9,21.8,11111222 
DISL,ioos:station:DISL:PPTA:1,2019-07-01T23:00:00Z,30.2791,-87.5561,1.996,21.59,11111222 
DISL,ioos:station:DISL:PPTA:1,2019-07-01T23:30:00Z,30.2791,-87.5561,2.4,20.6,11111222 
DISL,ioos:station:DISL:PPTA:1,2019-07-02T00:00:00Z,30.2791,-87.5561,1.873,19.8,11111222 
DISL,ioos:station:DISL:PPTA:1,2019-07-02T00:30:00Z,30.2791,-87.5561,2.4,19.1,11111222 
DISL,ioos:station:DISL:PPTA:1,2019-07-02T01:00:00Z,30.2791,-87.5561,2.396,18.55,11111222 
DISL,ioos:station:DISL:PPTA:1,2019-07-02T01:30:00Z,30.2791,-87.5561,2.5,18.6,11111222 
DISL,ioos:station:DISL:PPTA:1,2019-07-02T02:00:00Z,30.2791,-87.5561,2.586,17.76,11111222 
DISL,ioos:station:DISL:PPTA:1,2019-07-02T02:30:00Z,30.2791,-87.5561,2.2,18.5,11111222 
DISL,ioos:station:DISL:PPTA:1,2019-07-02T03:00:00Z,30.2791,-87.5561,2.052,18.53,11111222 
DISL,ioos:station:DISL:PPTA:1,2019-07-02T03:30:00Z,30.2791,-87.5561,2.6,18.4,11111222 
DISL,ioos:station:DISL:PPTA:1,2019-07-02T04:00:00Z,30.2791,-87.5561,2.576,18.42,11111222 
DISL,ioos:station:DISL:PPTA:1,2019-07-02T04:30:00Z,30.2791,-87.5561,2.7,18.2,11111222 
DISL,ioos:station:DISL:PPTA:1,2019-07-02T05:00:00Z,30.2791,-87.5561,2.632,18.37,11111222 
DISL,ioos:station:DISL:PPTA:1,2019-07-02T05:30:00Z,30.2791,-87.5561,2.7,21.4,11111222 
DISL,ioos:station:DISL:PPTA:1,2019-07-02T06:00:00Z,30.2791,-87.5561,2.737,22.01,11111222 
DISL,ioos:station:DISL:PPTA:1,2019-07-02T06:30:00Z,30.2791,-87.5561,2.3,21.7,11111222 
DISL,ioos:station:DISL:PPTA:1,2019-07-02T07:00:00Z,30.2791,-87.5561,2.255,20.28,11111222 
DISL,ioos:station:DISL:PPTA:1,2019-07-02T07:30:00Z,30.2791,-87.5561,2.3,22.5,11111222 
DISL,ioos:station:DISL:PPTA:1,2019-07-02T08:00:00Z,30.2791,-87.5561,2.469,25.75,11111222 
DISL,ioos:station:DISL:PPTA:1,2019-07-02T08:30:00Z,30.2791,-87.5561,2.7,25.6,11111222 
DISL,ioos:station:DISL:PPTA:1,2019-07-02T09:00:00Z,30.2791,-87.5561,2.379,26.14,11111222 
DISL,ioos:station:DISL:PPTA:1,2019-07-02T09:30:00Z,30.2791,-87.5561,2.7,26.8,11111222 
DISL,ioos:station:DISL:PPTA:1,2019-07-02T10:00:00Z,30.2791,-87.5561,2.642,27.56,11111222 
DISL,ioos:station:DISL:PPTA:1,2019-07-02T10:30:00Z,30.2791,-87.5561,2.8,27.6,11111222 
DISL,ioos:station:DISL:PPTA:1,2019-07-02T11:00:00Z,30.2791,-87.5561,2.815,28.71,11111222 
DISL,ioos:station:DISL:PPTA:1,2019-07-02T11:30:00Z,30.2791,-87.5561,3.1,29.0,11111222 
DISL,ioos:station:DISL:PPTA:1,2019-07-02T12:00:00Z,30.2791,-87.5561,3.13,29.54,11111222 
DISL,ioos:station:DISL:PPTA:1,2019-07-02T12:30:00Z,30.2791,-87.5561,3.1,29.2,11111222 
DISL,ioos:station:DISL:PPTA:1,2019-07-02T13:00:00Z,30.2791,-87.5561,3.119,29.74,11111222 
DISL,ioos:station:DISL:PPTA:1,2019-07-02T13:30:00Z,30.2791,-87.5561,3.2,29.9,11111222 
DISL,ioos:station:DISL:PPTA:1,2019-07-02T14:00:00Z,30.2791,-87.5561,3.242,30.44,11111222 
DISL,ioos:station:DISL:PPTA:1,2019-07-02T14:30:00Z,30.2791,-87.5561,3.3,31.0,11111222 
DISL,ioos:station:DISL:PPTA:1,2019-07-02T15:00:00Z,30.2791,-87.5561,3.189,30.98,11111222 
DISL,ioos:station:DISL:PPTA:1,2019-07-02T15:30:00Z,30.2791,-87.5561,3.3,31.4,11111222 
DISL,ioos:station:DISL:PPTA:1,2019-07-02T16:00:00Z,30.2791,-87.5561,3.285,31.36,11111222 
DISL,ioos:station:DISL:PPTA:1,2019-07-02T16:30:00Z,30.2791,-87.5561,3.4,31.4,11111222 
DISL,ioos:station:DISL:PPTA:1,2019-07-02T17:00:00Z,30.2791,-87.5561,3.374,31.52,11111222 
DISL,ioos:station:DISL:PPTA:1,2019-07-02T17:30:00Z,30.2791,-87.5561,3.4,31.4,11111222 
DISL,ioos:station:DISL:PPTA:1,2019-07-02T18:00:00Z,30.2791,-87.5561,3.539,31.48,11111222 
DISL,ioos:station:DISL:PPTA:1,2019-07-02T18:30:00Z,30.2791,-87.5561,3.6,30.7,11111222 
DISL,ioos:station:DISL:PPTA:1,2019-07-02T19:00:00Z,30.2791,-87.5561,3.711,29.38,11111222 
DISL,ioos:station:DISL:PPTA:1,2019-07-02T19:30:00Z,30.2791,-87.5561,3.8,29.6,11111222 
DISL,ioos:station:DISL:PPTA:1,2019-07-02T20:00:00Z,30.2791,-87.5561,3.773,29.61,11111222 
DISL,ioos:station:DISL:PPTA:1,2019-07-02T20:30:00Z,30.2791,-87.5561,3.6,29.4,11111222 
DISL,ioos:station:DISL:PPTA:1,2019-07-02T21:00:00Z,30.2791,-87.5561,3.642,28.37,11111222 
DISL,ioos:station:DISL:PPTA:1,2019-07-02T21:30:00Z,30.2791,-87.5561,3.7,27.7,11111222 
DISL,ioos:station:DISL:PPTA:1,2019-07-02T22:00:00Z,30.2791,-87.5561,3.953,27.15,11111222 
DISL,ioos:station:DISL:PPTA:1,2019-07-02T22:30:00Z,30.2791,-87.5561,4.0,27.2,11111222 
DISL,ioos:station:DISL:PPTA:1,2019-07-02T23:00:00Z,30.2791,-87.5561,4.089,25.38,11111222 
DISL,ioos:station:DISL:PPTA:1,2019-07-02T23:30:00Z,30.2791,-87.5561,5.2,25.1,11111222 
DISL,ioos:station:DISL:PPTA:1,2019-07-03T00:00:00Z,30.2791,-87.5561,3.886,24.33,11111222 
DISL,ioos:station:DISL:PPTA:1,2019-07-03T00:30:00Z,30.2791,-87.5561,4.6,23.8,11111222 
DISL,ioos:station:DISL:PPTA:1,2019-07-03T01:00:00Z,30.2791,-87.5561,5.591,23.12,11111222 
DISL,ioos:station:DISL:PPTA:1,2019-07-03T01:30:00Z,30.2791,-87.5561,4.5,22.5,11111222 
DISL,ioos:station:DISL:PPTA:1,2019-07-03T02:00:00Z,30.2791,-87.5561,5.437,21.81,11111222 
DISL,ioos:station:DISL:PPTA:1,2019-07-03T02:30:00Z,30.2791,-87.5561,5.8,21.2,11111222 
DISL,ioos:station:DISL:PPTA:1,2019-07-03T03:00:00Z,30.2791,-87.5561,5.404,20.74,11111222 
DISL,ioos:station:DISL:PPTA:1,2019-07-03T03:30:00Z,30.2791,-87.5561,6.1,20.4,11111222 
DISL,ioos:station:DISL:PPTA:1,2019-07-03T04:00:00Z,30.2791,-87.5561,5.922,20.39,11111222 
DISL,ioos:station:DISL:PPTA:1,2019-07-03T04:30:00Z,30.2791,-87.5561,5.9,20.0,11111222 
DISL,ioos:station:DISL:PPTA:1,2019-07-03T05:00:00Z,30.2791,-87.5561,5.795,20.2,11111222 
DISL,ioos:station:DISL:PPTA:1,2019-07-03T05:30:00Z,30.2791,-87.5561,6.2,19.6,11111222 
DISL,ioos:station:DISL:PPTA:1,2019-07-03T06:00:00Z,30.2791,-87.5561,6.181,23.13,11111222 
DISL,ioos:station:DISL:PPTA:1,2019-07-03T06:30:00Z,30.2791,-87.5561,5.7,21.3,11111222 
DISL,ioos:station:DISL:PPTA:1,2019-07-03T07:00:00Z,30.2791,-87.5561,5.291,20.94,11111222 
DISL,ioos:station:DISL:PPTA:1,2019-07-03T07:30:00Z,30.2791,-87.5561,4.8,24.1,11111222 
DISL,ioos:station:DISL:PPTA:1,2019-07-03T08:00:00Z,30.2791,-87.5561,4.747,26.61,11111222 
DISL,ioos:station:DISL:PPTA:1,2019-07-03T08:30:00Z,30.2791,-87.5561,5.1,28.3,11111222 
DISL,ioos:station:DISL:PPTA:1,2019-07-03T09:00:00Z,30.2791,-87.5561,5.412,28.64,11111222 
DISL,ioos:station:DISL:PPTA:1,2019-07-03T09:30:00Z,30.2791,-87.5561,5.3,29.8,11111222 
DISL,ioos:station:DISL:PPTA:1,2019-07-03T10:00:00Z,30.2791,-87.5561,4.869,30.34,11111222 
DISL,ioos:station:DISL:PPTA:1,2019-07-03T10:30:00Z,30.2791,-87.5561,4.8,30.8,11111222 
DISL,ioos:station:DISL:PPTA:1,2019-07-03T11:00:00Z,30.2791,-87.5561,4.878,31.0,11111222 
DISL,ioos:station:DISL:PPTA:1,2019-07-03T11:30:00Z,30.2791,-87.5561,4.7,31.5,11111222 
DISL,ioos:station:DISL:PPTA:1,2019-07-03T12:00:00Z,30.2791,-87.5561,4.345,30.68,11111222 
DISL,ioos:station:DISL:PPTA:1,2019-07-03T12:30:00Z,30.2791,-87.5561,5.0,31.6,11111222 
DISL,ioos:station:DISL:PPTA:1,2019-07-03T13:00:00Z,30.2791,-87.5561,5.089,31.64,11111222 
DISL,ioos:station:DISL:PPTA:1,2019-07-03T13:30:00Z,30.2791,-87.5561,4.7,31.7,11111222 
DISL,ioos:station:DISL:PPTA:1,2019-07-03T14:00:00Z,30.2791,-87.5561,4.949,29.66,11111222 
DISL,ioos:station:DISL:PPTA:1,2019-07-03T14:30:00Z,30.2791,-87.5561,5.1,29.2,11111222 
DISL,ioos:station:DISL:PPTA:1,2019-07-03T15:00:00Z,30.2791,-87.5561,4.727,30.76,11111222 
DISL,ioos:station:DISL:PPTA:1,2019-07-03T15:30:00Z,30.2791,-87.5561,4.8,31.1,11111222 
DISL,ioos:station:DISL:PPTA:1,2019-07-03T16:00:00Z,30.2791,-87.5561,5.23,31.01,11111222 
DISL,ioos:station:DISL:PPTA:1,2019-07-03T16:30:00Z,30.2791,-87.5561,5.1,31.5,11111222 
DISL,ioos:station:DISL:PPTA:1,2019-07-03T17:00:00Z,30.2791,-87.5561,4.966,31.97,11111222 
DISL,ioos:station:DISL:PPTA:1,2019-07-03T17:30:00Z,30.2791,-87.5561,5.1,31.1,11111222 
DISL,ioos:station:DISL:PPTA:1,2019-07-03T18:00:00Z,30.2791,-87.5561,4.991,30.9,11111222 
DISL,ioos:station:DISL:PPTA:1,2019-07-03T18:30:00Z,30.2791,-87.5561,4.4,30.9,11111222 
DISL,ioos:station:DISL:PPTA:1,2019-07-03T19:00:00Z,30.2791,-87.5561,4.086,31.25,11111222 
DISL,ioos:station:DISL:PPTA:1,2019-07-03T19:30:00Z,30.2791,-87.5561,4.5,30.9,11111222 
DISL,ioos:station:DISL:PPTA:1,2019-07-03T20:00:00Z,30.2791,-87.5561,5.107,31.29,11111222 
DISL,ioos:station:DISL:PPTA:1,2019-07-03T20:30:00Z,30.2791,-87.5561,4.4,30.7,11111222 
DISL,ioos:station:DISL:PPTA:1,2019-07-03T21:00:00Z,30.2791,-87.5561,4.547,30.6,11111222 
DISL,ioos:station:DISL:PPTA:1,2019-07-03T21:30:00Z,30.2791,-87.5561,4.5,30.2,11111222 
DISL,ioos:station:DISL:PPTA:1,2019-07-03T22:00:00Z,30.2791,-87.5561,4.422,29.5,11111222 
DISL,ioos:station:DISL:PPTA:1,2019-07-03T22:30:00Z,30.2791,-87.5561,3.8,29.0,11111222 
DISL,ioos:station:DISL:PPTA:1,2019-07-03T23:00:00Z,30.2791,-87.5561,3.701,26.55,11111222 
DISL,ioos:station:DISL:PPTA:1,2019-07-03T23:30:00Z,30.2791,-87.5561,3.7,27.2,11111222 
DISL,ioos:station:DISL:PPTA:1,2019-07-04T00:00:00Z,30.2791,-87.5561,4.908,26.12,11111222 
DISL,ioos:station:DISL:PPTA:1,2019-07-04T00:30:00Z,30.2791,-87.5561,4.2,25.6,11111222 
DISL,ioos:station:DISL:PPTA:1,2019-07-04T01:00:00Z,30.2791,-87.5561,4.425,24.34,11111222 
DISL,ioos:station:DISL:PPTA:1,2019-07-04T01:30:00Z,30.2791,-87.5561,4.6,24.4,11111222 
DISL,ioos:station:DISL:PPTA:1,2019-07-04T02:00:00Z,30.2791,-87.5561,4.228,23.16,11111222 
DISL,ioos:station:DISL:PPTA:1,2019-07-04T02:30:00Z,30.2791,-87.5561,4.3,22.5,11111222 
DISL,ioos:station:DISL:PPTA:1,2019-07-04T03:00:00Z,30.2791,-87.5561,3.948,21.69,11111222 
DISL,ioos:station:DISL:PPTA:1,2019-07-04T03:30:00Z,30.2791,-87.5561,5.4,21.5,11111222 
DISL,ioos:station:DISL:PPTA:1,2019-07-04T04:00:00Z,30.2791,-87.5561,4.907,21.08,11111222 
DISL,ioos:station:DISL:PPTA:1,2019-07-04T04:30:00Z,30.2791,-87.5561,4.7,20.9,11111222 
DISL,ioos:station:DISL:PPTA:1,2019-07-04T05:00:00Z,30.2791,-87.5561,4.542,20.61,11111222 
DISL,ioos:station:DISL:PPTA:1,2019-07-04T05:30:00Z,30.2791,-87.5561,4.6,20.7,11111222 
DISL,ioos:station:DISL:PPTA:1,2019-07-04T06:00:00Z,30.2791,-87.5561,4.536,20.77,11111222 
DISL,ioos:station:DISL:PPTA:1,2019-07-04T06:30:00Z,30.2791,-87.5561,4.5,20.4,11111222 
DISL,ioos:station:DISL:PPTA:1,2019-07-04T07:00:00Z,30.2791,-87.5561,4.443,24.12,11111222 
DISL,ioos:station:DISL:PPTA:1,2019-07-04T07:30:00Z,30.2791,-87.5561,4.4,22.8,11111222 
DISL,ioos:station:DISL:PPTA:1,2019-07-04T08:00:00Z,30.2791,-87.5561,4.355,21.49,11111222 
DISL,ioos:station:DISL:PPTA:1,2019-07-04T08:30:00Z,30.2791,-87.5561,4.3,25.5,11111222 
DISL,ioos:station:DISL:PPTA:1,2019-07-04T09:00:00Z,30.2791,-87.5561,5.035,28.92,11111222 
DISL,ioos:station:DISL:PPTA:1,2019-07-04T09:30:00Z,30.2791,-87.5561,4.8,30.2,11111222 
DISL,ioos:station:DISL:PPTA:1,2019-07-04T10:00:00Z,30.2791,-87.5561,4.598,30.31,11111222 
DISL,ioos:station:DISL:PPTA:1,2019-07-04T10:30:00Z,30.2791,-87.5561,4.6,30.5,11111222 
DISL,ioos:station:DISL:PPTA:1,2019-07-04T11:00:00Z,30.2791,-87.5561,4.496,31.16,11111222 
DISL,ioos:station:DISL:PPTA:1,2019-07-04T11:30:00Z,30.2791,-87.5561,4.1,30.7,11111222 
DISL,ioos:station:DISL:PPTA:1,2019-07-04T12:00:00Z,30.2791,-87.5561,4.388,30.87,11111222 
DISL,ioos:station:DISL:PPTA:1,2019-07-04T12:30:00Z,30.2791,-87.5561,4.3,31.3,11111222 
DISL,ioos:station:DISL:PPTA:1,2019-07-04T13:00:00Z,30.2791,-87.5561,4.158,31.53,11111222 
DISL,ioos:station:DISL:PPTA:1,2019-07-04T13:30:00Z,30.2791,-87.5561,4.8,31.7,11111222 
DISL,ioos:station:DISL:PPTA:1,2019-07-04T14:00:00Z,30.2791,-87.5561,4.198,31.65,11111222 
DISL,ioos:station:DISL:PPTA:1,2019-07-04T14:30:00Z,30.2791,-87.5561,4.2,31.6,11111222 
DISL,ioos:station:DISL:PPTA:1,2019-07-04T15:00:00Z,30.2791,-87.5561,4.44,31.75,11111222 
DISL,ioos:station:DISL:PPTA:1,2019-07-04T15:30:00Z,30.2791,-87.5561,4.2,32.0,11111222 
DISL,ioos:station:DISL:PPTA:1,2019-07-04T16:00:00Z,30.2791,-87.5561,4.289,32.04,11111222 
DISL,ioos:station:DISL:PPTA:1,2019-07-04T16:30:00Z,30.2791,-87.5561,4.2,32.2,11111222 
DISL,ioos:station:DISL:PPTA:1,2019-07-04T17:00:00Z,30.2791,-87.5561,4.223,32.14,11111222 
DISL,ioos:station:DISL:PPTA:1,2019-07-04T17:30:00Z,30.2791,-87.5561,4.0,32.2,11111222 
DISL,ioos:station:DISL:PPTA:1,2019-07-04T18:00:00Z,30.2791,-87.5561,4.049,32.36,11111222 
DISL,ioos:station:DISL:PPTA:1,2019-07-04T18:30:00Z,30.2791,-87.5561,4.0,32.3,11111222 
DISL,ioos:station:DISL:PPTA:1,2019-07-04T19:00:00Z,30.2791,-87.5561,3.721,32.42,11111222 
DISL,ioos:station:DISL:PPTA:1,2019-07-04T19:30:00Z,30.2791,-87.5561,4.1,32.1,11111222 
DISL,ioos:station:DISL:PPTA:1,2019-07-04T20:00:00Z,30.2791,-87.5561,4.464,32.01,11111222 
DISL,ioos:station:DISL:PPTA:1,2019-07-04T20:30:00Z,30.2791,-87.5561,4.3,31.6,11111222 
DISL,ioos:station:DISL:PPTA:1,2019-07-04T21:00:00Z,30.2791,-87.5561,4.309,30.65,11111222 
DISL,ioos:station:DISL:PPTA:1,2019-07-04T21:30:00Z,30.2791,-87.5561,4.1,30.8,11111222 
DISL,ioos:station:DISL:PPTA:1,2019-07-04T22:00:00Z,30.2791,-87.5561,4.257,31.45,11111222 
DISL,ioos:station:DISL:PPTA:1,2019-07-04T22:30:00Z,30.2791,-87.5561,4.2,30.8,11111222 
DISL,ioos:station:DISL:PPTA:1,2019-07-04T23:00:00Z,30.2791,-87.5561,4.199,31.1,11111222 
DISL,ioos:station:DISL:PPTA:1,2019-07-04T23:30:00Z,30.2791,-87.5561,4.0,30.8,11111222 
DISL,ioos:station:DISL:PPTA:1,2019-07-05T00:00:00Z,30.2791,-87.5561,4.032,29.58,11111222 
DISL,ioos:station:DISL:PPTA:1,2019-07-05T00:30:00Z,30.2791,-87.5561,4.0,28.7,11111222 
DISL,ioos:station:DISL:PPTA:1,2019-07-05T01:00:00Z,30.2791,-87.5561,3.986,27.92,11111222 
DISL,ioos:station:DISL:PPTA:1,2019-07-05T01:30:00Z,30.2791,-87.5561,3.8,27.9,11111222 
DISL,ioos:station:DISL:PPTA:1,2019-07-05T02:00:00Z,30.2791,-87.5561,3.57,25.61,11111222 
DISL,ioos:station:DISL:PPTA:1,2019-07-05T02:30:00Z,30.2791,-87.5561,3.7,25.9,11111222 
DISL,ioos:station:DISL:PPTA:1,2019-07-05T03:00:00Z,30.2791,-87.5561,3.398,24.84,11111222 
DISL,ioos:station:DISL:PPTA:1,2019-07-05T03:30:00Z,30.2791,-87.5561,3.5,24.4,11111222 
DISL,ioos:station:DISL:PPTA:1,2019-07-05T04:00:00Z,30.2791,-87.5561,3.464,24.42,11111222 
DISL,ioos:station:DISL:PPTA:1,2019-07-05T04:30:00Z,30.2791,-87.5561,3.5,23.8,11111222 
DISL,ioos:station:DISL:PPTA:1,2019-07-05T05:00:00Z,30.2791,-87.5561,3.495,23.42,11111222 
DISL,ioos:station:DISL:PPTA:1,2019-07-05T05:30:00Z,30.2791,-87.5561,3.3,23.1,11111222 
DISL,ioos:station:DISL:PPTA:1,2019-07-05T06:00:00Z,30.2791,-87.5561,4.226,22.7,11111222 
DISL,ioos:station:DISL:PPTA:1,2019-07-05T06:30:00Z,30.2791,-87.5561,4.2,22.3,11111222 
DISL,ioos:station:DISL:PPTA:1,2019-07-05T07:00:00Z,30.2791,-87.5561,4.187,21.69,11111222 
DISL,ioos:station:DISL:PPTA:1,2019-07-05T07:30:00Z,30.2791,-87.5561,3.9,24.4,11111222 
DISL,ioos:station:DISL:PPTA:1,2019-07-05T08:00:00Z,30.2791,-87.5561,3.854,23.41,11111222 
DISL,ioos:station:DISL:PPTA:1,2019-07-05T08:30:00Z,30.2791,-87.5561,3.8,22.6,11111222 
DISL,ioos:station:DISL:PPTA:1,2019-07-05T09:00:00Z,30.2791,-87.5561,3.568,26.8,11111222 
DISL,ioos:station:DISL:PPTA:1,2019-07-05T09:30:00Z,30.2791,-87.5561,3.8,29.2,11111222 
DISL,ioos:station:DISL:PPTA:1,2019-07-05T10:00:00Z,30.2791,-87.5561,3.499,30.33,11111222 
DISL,ioos:station:DISL:PPTA:1,2019-07-05T10:30:00Z,30.2791,-87.5561,3.9,29.9,11111222 
DISL,ioos:station:DISL:PPTA:1,2019-07-05T11:00:00Z,30.2791,-87.5561,3.746,29.75,11111222 
DISL,ioos:station:DISL:PPTA:1,2019-07-05T11:30:00Z,30.2791,-87.5561,4.1,29.9,11111222 
DISL,ioos:station:DISL:PPTA:1,2019-07-05T12:00:00Z,30.2791,-87.5561,3.818,29.62,11111222 
DISL,ioos:station:DISL:PPTA:1,2019-07-05T12:30:00Z,30.2791,-87.5561,3.8,29.2,11111222 
DISL,ioos:station:DISL:PPTA:1,2019-07-05T13:00:00Z,30.2791,-87.5561,3.748,31.49,11111222 
DISL,ioos:station:DISL:PPTA:1,2019-07-05T13:30:00Z,30.2791,-87.5561,3.2,30.6,11111222 
DISL,ioos:station:DISL:PPTA:1,2019-07-05T14:00:00Z,30.2791,-87.5561,3.372,31.24,11111222 
DISL,ioos:station:DISL:PPTA:1,2019-07-05T14:30:00Z,30.2791,-87.5561,3.5,31.1,11111222 
DISL,ioos:station:DISL:PPTA:1,2019-07-05T15:00:00Z,30.2791,-87.5561,3.827,31.3,11111222 
DISL,ioos:station:DISL:PPTA:1,2019-07-05T15:30:00Z,30.2791,-87.5561,3.598,31.61,11111222 
DISL,ioos:station:DISL:PPTA:1,2019-07-05T16:00:00Z,30.2791,-87.5561,4.0,31.3,11111222 
DISL,ioos:station:DISL:PPTA:1,2019-07-05T16:30:00Z,30.2791,-87.5561,3.7,31.8,11111222 
DISL,ioos:station:DISL:PPTA:1,2019-07-05T17:00:00Z,30.2791,-87.5561,3.702,31.97,11111222 
DISL,ioos:station:DISL:PPTA:1,2019-07-05T17:30:00Z,30.2791,-87.5561,3.7,31.8,11111222 
DISL,ioos:station:DISL:PPTA:1,2019-07-05T18:00:00Z,30.2791,-87.5561,4.637,32.04,11111222 
DISL,ioos:station:DISL:PPTA:1,2019-07-05T18:30:00Z,30.2791,-87.5561,4.3,32.6,11111222 
DISL,ioos:station:DISL:PPTA:1,2019-07-05T19:00:00Z,30.2791,-87.5561,3.858,32.28,11111222 
DISL,ioos:station:DISL:PPTA:1,2019-07-05T19:30:00Z,30.2791,-87.5561,3.7,32.6,11111222 
DISL,ioos:station:DISL:PPTA:1,2019-07-05T20:00:00Z,30.2791,-87.5561,4.128,32.08,11111222 
DISL,ioos:station:DISL:PPTA:1,2019-07-05T20:30:00Z,30.2791,-87.5561,3.7,32.4,11111222 
DISL,ioos:station:DISL:PPTA:1,2019-07-05T21:00:00Z,30.2791,-87.5561,3.591,32.39,11111222 
DISL,ioos:station:DISL:PPTA:1,2019-07-05T21:30:00Z,30.2791,-87.5561,3.9,31.8,11111222 
DISL,ioos:station:DISL:PPTA:1,2019-07-05T22:00:00Z,30.2791,-87.5561,4.338,31.03,11111222 
DISL,ioos:station:DISL:PPTA:1,2019-07-05T22:30:00Z,30.2791,-87.5561,3.7,32.1,11111222 
DISL,ioos:station:DISL:PPTA:1,2019-07-05T23:00:00Z,30.2791,-87.5561,3.214,31.42,11111222 
DISL,ioos:station:DISL:PPTA:1,2019-07-05T23:30:00Z,30.2791,-87.5561,3.5,31.1,11111222 
DISL,ioos:station:DISL:PPTA:1,2019-07-06T00:00:00Z,30.2791,-87.5561,3.704,31.27,11111222 
DISL,ioos:station:DISL:PPTA:1,2019-07-06T00:30:00Z,30.2791,-87.5561,3.6,30.4,11111222 
DISL,ioos:station:DISL:PPTA:1,2019-07-06T01:00:00Z,30.2791,-87.5561,3.754,29.66,11111222 
DISL,ioos:station:DISL:PPTA:1,2019-07-06T01:30:00Z,30.2791,-87.5561,3.2,28.1,11111222 
DISL,ioos:station:DISL:PPTA:1,2019-07-06T02:00:00Z,30.2791,-87.5561,2.97,28.43,11111222 
DISL,ioos:station:DISL:PPTA:1,2019-07-06T02:30:00Z,30.2791,-87.5561,3.4,27.8,11111222 
DISL,ioos:station:DISL:PPTA:1,2019-07-06T03:00:00Z,30.2791,-87.5561,2.859,28.05,11111222 
DISL,ioos:station:DISL:PPTA:1,2019-07-06T03:30:00Z,30.2791,-87.5561,2.9,25.9,11111222 
DISL,ioos:station:DISL:PPTA:1,2019-07-06T04:00:00Z,30.2791,-87.5561,3.072,25.34,11111222 
DISL,ioos:station:DISL:PPTA:1,2019-07-06T04:30:00Z,30.2791,-87.5561,2.9,25.5,11111222 
DISL,ioos:station:DISL:PPTA:1,2019-07-06T05:00:00Z,30.2791,-87.5561,2.876,25.7,11111222 
DISL,ioos:station:DISL:PPTA:1,2019-07-06T05:30:00Z,30.2791,-87.5561,2.9,24.9,11111222 
DISL,ioos:station:DISL:PPTA:1,2019-07-06T06:00:00Z,30.2791,-87.5561,3.198,24.22,11111222 
DISL,ioos:station:DISL:PPTA:1,2019-07-06T06:30:00Z,30.2791,-87.5561,3.2,23.6,11111222 
DISL,ioos:station:DISL:PPTA:1,2019-07-06T07:00:00Z,30.2791,-87.5561,3.203,22.68,11111222 
DISL,ioos:station:DISL:PPTA:1,2019-07-06T07:30:00Z,30.2791,-87.5561,3.1,21.5,11111222 
DISL,ioos:station:DISL:PPTA:1,2019-07-06T08:00:00Z,30.2791,-87.5561,3.046,24.06,11111222 
DISL,ioos:station:DISL:PPTA:1,2019-07-06T08:30:00Z,30.2791,-87.5561,2.9,24.0,11111222 
DISL,ioos:station:DISL:PPTA:1,2019-07-06T09:00:00Z,30.2791,-87.5561,3.168,24.39,11111222 
DISL,ioos:station:DISL:PPTA:1,2019-07-06T09:30:00Z,30.2791,-87.5561,4.0,23.2,11111222 
DISL,ioos:station:DISL:PPTA:1,2019-07-06T10:00:00Z,30.2791,-87.5561,3.121,23.49,11111222 
DISL,ioos:station:DISL:PPTA:1,2019-07-06T10:30:00Z,30.2791,-87.5561,3.1,24.4,11111222 
DISL,ioos:station:DISL:PPTA:1,2019-07-06T11:00:00Z,30.2791,-87.5561,3.003,26.62,11111222 
DISL,ioos:station:DISL:PPTA:1,2019-07-06T11:30:00Z,30.2791,-87.5561,3.2,26.1,11111222 
DISL,ioos:station:DISL:PPTA:1,2019-07-06T12:00:00Z,30.2791,-87.5561,3.426,26.22,11111222 
DISL,ioos:station:DISL:PPTA:1,2019-07-06T12:30:00Z,30.2791,-87.5561,3.2,27.6,11111222 
DISL,ioos:station:DISL:PPTA:1,2019-07-06T13:00:00Z,30.2791,-87.5561,3.047,27.75,11111222 
DISL,ioos:station:DISL:PPTA:1,2019-07-06T13:30:00Z,30.2791,-87.5561,3.5,28.6,11111222 
DISL,ioos:station:DISL:PPTA:1,2019-07-06T14:00:00Z,30.2791,-87.5561,3.64,28.6,11111222 
DISL,ioos:station:DISL:PPTA:1,2019-07-06T14:30:00Z,30.2791,-87.5561,3.3,29.9,11111222 